Notices

What's New in latest Release from April 7th, 2021:

- Updated Glossary, including Speed of Maximum Gust, and Total Hourly Precipitation

- Updated national and regional climate services offices contacts and prices information

- Addition of station inventory lists for 1981-2010, 1971-2000, and 1961-1990 Normals.

If you haven't already, please take our survey and provide feedback about our website: https://eccc.sondage-survey.ca/f/LanguageSelection.aspx?s=442ca660-fcf1-47c0-95a9-59707d6fd709

Hourly Data Report for July 30, 2019

TORONTO CITY
ONTARIO
Current Station Operator: ECCC - MSC

43°40'00.000" N
79°24'00.000" W
112.50 m
6158355
71508
XTO

Download Data

Hourly Data (July 2019)
Hourly Data Report for July 30, 2019
TIME
LST
Temp Definition
°C
Dew Point Definition
°C
Rel Hum Definition
%
Precip. Amount Definition
mm

Wind Dir Definition
10's deg

Wind Spd Definition
km/h
Visibility Definition
km
Stn Press Definition
kPa
Hmdx Definition


Wind Chill Definition


Weather Definition


00:00 20.9 18.2 85 0.0       99.87 27   LegendNANA
01:00 21.1 18.8 87 0.2       99.84 28   LegendNANA
02:00 21.0 18.3 85 0.0       99.82 27   LegendNANA
03:00 20.6 18.4 87 0.2       99.82 27   LegendNANA
04:00 19.7 17.7 89 2.3       99.83     LegendNANA
05:00 19.9 18.3 90 3.3       99.84     LegendNANA
06:00 19.9 18.3 91 1.5       99.89     LegendNANA
07:00 20.0 18.4 91 10.9       99.90 26   LegendNANA
08:00 20.4 18.8 91 0.9       99.92 27   LegendNANA
09:00 21.2 19.6 91 3.6       99.93 28   LegendNANA
10:00 22.0 19.5 86 0.0       99.95 29   LegendNANA
11:00 24.2 19.9 77 0.0       99.98 32   LegendNANA
12:00 25.8 19.8 70 0.0       99.97 33   LegendNANA
13:00 26.1 18.7 64 0.0       99.97 33   LegendNANA
14:00 26.9 18.2 59 0.0       99.92 33   LegendNANA
15:00 27.1 15.9 51 0.0       99.88 32   LegendNANA
16:00 26.7 16.5 54 0.0       99.88 32   LegendNANA
17:00 26.8 17.6 57 0.0       99.90 33   LegendNANA
18:00 26.1 16.4 55 0.0       99.99 31   LegendNANA
19:00 25.1 16.2 58 0.0       100.03 30   LegendNANA
20:00 24.4 16.0 59 0.0       100.11 29   LegendNANA
21:00 23.4 15.5 61 0.0       100.18 28   LegendNANA
22:00 22.5 14.2 59 0.0       100.25 26   LegendNANA
23:00 21.4 13.9 62 0.0       100.30 25   LegendNANA

Notes on Data Quality.

Legend

  • E = Estimated
  • M = Missing
  • NA = Not Available*
  • [empty] = Indicates an unobserved value
Date modified: